User: anonymous   Login
Location: Caltech
(34.1382°N, 118.1253°W)
Time: 06:19:59
(UTC-07:00)
Language:

Tiros 1 despin weight - Orbit

View from above orbital plane
View from above orbital plane
View from above satellite
View from above satellite

Ground track
Ground track

The orbit data is extracted from the following two-line orbital elements,

1   115U 60002D   17086.47060738 +.00000129 +00000-0 +42969-4 0  9998
2   115 048.1661 176.5487 0034315 099.7334 260.7457 14.83034154038098
Epoch (UTC): 27 March 2017 11:17:40
Eccentricity: 0.0034315
inclination: 48.1661°
perigee height: 596 km
apogee height: 644 km
right ascension of ascending node: 176.5487°
argument of perigee: 99.7334°
revolutions per day: 14.83034154
mean anomaly at epoch: 260.7457°
orbit number at epoch: 3809

The dashed part of the orbit path shows where the satellite is in the earth's shadow,  

DLR